Ontario, OR

11:19 AM MST on February 20, 2018 (GMT -0700)
Ontario Municipal

Weather History for KONO - May, 2014

Change the Weather History Date:

Thursday, May 8, 2014

  Actual Average Record
Temperature  
Mean Temperature 53 °F 57 °F  
Max Temperature 71 °F 72 °F 92 °F (1992)
Min Temperature 35 °F 42 °F 30 °F (2002)
Degree Days  
Heating Degree Days 12 9  
Month to date heating degree days 50 78  
Since 1 July heating degree days 5797 5819  
Cooling Degree Days 0 1  
Month to date cooling degree days 0 3  
Year to date cooling degree days 0 4  
Growing Degree Days 4 (Base 50)    
Moisture  
Dew Point 36 °F    
Average Humidity 59    
Maximum Humidity 93    
Minimum Humidity 25    
Precipitation  
Precipitation 0.25 in 0.03 in 0.36 in (1979)
Month to date precipitation 0.26 0.29  
Year to date precipitation 4.57 4.08  
Sea Level Pressure  
Sea Level Pressure 29.87 in    
Wind  
Wind Speed 5 mph (SW)    
Max Wind Speed 20 mph    
Max Gust Speed 24 mph    
Visibility 10 miles    
Events Rain    
T = Trace of Precipitation, MM = Missing Value Source: NWS Daily Summary

Daily Weather History Graph

Daily Weather History Graph

Search for Another Location

Airport or City:

Trip Planner

Search our weather history database for the weather conditions in past years. The results will help you decide how hot, cold, wet, or windy it might be!

Date:

Astronomy

May. 08, 2014 Rise Set
Actual Time 6:30 AM MDT 8:59 PM MDT
Civil Twilight 5:57 AM MDT 9:32 PM MDT
Nautical Twilight 5:16 AM MDT 10:13 PM MDT
Astronomical Twilight 4:31 AM MDT 10:59 PM MDT
Moon 2:52 PM MDT (5/8) 3:16 AM MDT (5/8)
Length of Visible Light 15h 34m
Length of Day
14h 29m
Waxing Gibbous, 65% of the Moon is Illuminated
May 8
Waxing Gibbous
May 14
Full
May 21
Last Quarter
May 28
New
Jun 5
First Quarter

Hourly Weather History & Observations

Time (MDT) Temp. Windchill Dew Point Humidity Pressure Visibility Wind Dir Wind Speed Gust Speed Precip Events Conditions
12:53 AM 44.1 °F 40.8 °F 32.0 °F 63% 29.90 in 10.0 mi WSW 5.8 mph - N/A   Clear
1:53 AM 44.1 °F 41.5 °F 30.0 °F 58% 29.90 in 10.0 mi West 4.6 mph - N/A   Clear
2:53 AM 41.0 °F 37.1 °F 30.0 °F 65% 29.90 in 10.0 mi SW 5.8 mph - N/A   Clear
3:53 AM 39.0 °F 34.0 °F 30.0 °F 70% 29.91 in 10.0 mi WSW 6.9 mph - N/A   Clear
4:53 AM 39.0 °F 34.8 °F 28.0 °F 65% 29.91 in 10.0 mi WSW 5.8 mph - N/A   Clear
5:53 AM 37.0 °F 34.5 °F 28.0 °F 70% 29.92 in 10.0 mi WSW 3.5 mph - N/A   Clear
6:53 AM 36.0 °F - 28.0 °F 73% 29.94 in 10.0 mi Calm Calm - N/A   Clear
7:53 AM 39.9 °F - 30.0 °F 68% 29.95 in 10.0 mi Calm Calm - N/A   Clear
8:53 AM 46.0 °F - 32.0 °F 58% 29.95 in 10.0 mi Calm Calm - N/A   Partly Cloudy
9:53 AM 51.1 °F - 30.0 °F 44% 29.95 in 10.0 mi Calm Calm - N/A   Partly Cloudy
10:53 AM 55.9 °F - 34.0 °F 44% 29.93 in 10.0 mi Calm Calm - N/A   Partly Cloudy
11:53 AM 61.0 °F - 34.0 °F 36% 29.91 in 10.0 mi Variable 3.5 mph - N/A   Clear
12:53 PM 63.0 °F - 34.0 °F 34% 29.88 in 10.0 mi Variable 5.8 mph - N/A   Clear
1:53 PM 68.0 °F - 33.1 °F 27% 29.84 in 10.0 mi Variable 4.6 mph - N/A   Clear
3:53 PM 71.1 °F - 33.1 °F 25% 29.79 in 10.0 mi North - - N/A   Scattered Clouds
4:53 PM 69.1 °F - 33.1 °F 26% 29.78 in 10.0 mi SSW 8.1 mph - N/A   Overcast
5:53 PM 66.9 °F - 35.1 °F 31% 29.78 in 10.0 mi SW 13.8 mph - N/A   Overcast
6:53 PM 63.0 °F - 41.0 °F 45% 29.80 in 10.0 mi West 12.7 mph - N/A   Overcast
7:53 PM 57.0 °F - 50.0 °F 77% 29.81 in 10.0 mi South 3.5 mph - 0.02 in Rain Light Rain
8:53 PM 55.0 °F - 51.1 °F 86% 29.83 in 4.0 mi West 5.8 mph - 0.05 in Rain Light Rain
9:53 PM 54.0 °F - 51.1 °F 90% 29.79 in 10.0 mi SE 8.1 mph - 0.06 in Rain Light Rain
10:53 PM 54.0 °F - 51.1 °F 90% 29.80 in 10.0 mi Calm Calm - 0.00 in   Overcast
11:53 PM 54.0 °F - 51.1 °F 90% 29.78 in 10.0 mi SE 6.9 mph - 0.03 in Rain Light Rain